Dewpoint
73 72 71 70 69 68 64 68 67 68 69 69 69 70 71 71 71 70 70 70 70 70
71 71 69 67 65 64 66 65 68 68 68 68 69 69 69 70 70 70 70 70 70 69
70 69 67 65 64 66 66 66 68 69 68 68 68 68 68 68 70 69 70 70 69 69
70 64 64 62 64 65 66 68 67 68 67 67 67 67 68 67 65 65 67 68 68 68
66 64 61 63 66 66 68 68 68 67 67 67 67 67 64 63 64 64 64 65 66 67
62 64 67 68 70 69 69 69 67 68 67 67 66 65 64 63 62 62 62 63 65 65
65 69 70 70 70 70 70 69 69 67 67 67 67 64 64 62 61 61 61 62 62 63
67 69 69 70 69 70 69 70 69 68 67 67 67 61 60 61 62 62 62 62 63 61
68 69 69 69 69 70 69 68 68 67 67 67 64 62 62 62 61 63 62 62 62 60
68 68 68 69 68 68 68 68 67 65 62 62 58 61 62 64 61 62 61 60 59 59
68 68 68 69 67 66 65 64 62 60 61 54 53 56 57 59 55 53 53 54 56 56
66 67 67 66 64 62 60 60 59 60 59 52 51 53 52 52 50 48 48 51 54 54
66 64 62 61 61 61 61 59 61 59 54 53 49 52 51 47 44 44 46 48 48 53
59 61 60 59 60 60 60 56 56 55 57 55 52 50 49 49 44 44 45 45 45 46
Lifted_Index
-5 -4 -4 -2 -1 0 0 -0 -1 -1 -1 -1 -1 -1 -1 -2 -2 -1 -1 -1 -1 -1
-4 -4 -3 -1 -0 0 0 -0 -1 -1 -1 -1 -1 -1 -1 -1 -1 -1 -1 -1 -1 -1
-4 -3 -2 -0 0 0 -0 -1 -1 -1 -1 -0 -0 -0 0 0 0 0 0 0 -0 -0
-3 -2 -1 -1 -1 -1 -1 -1 -1 -1 -0 0 0 0 1 2 2 2 2 1 1 0
-2 -2 -2 -2 -2 -2 -2 -1 -1 -1 -0 0 0 1 2 3 4 4 4 3 2 2
-2 -3 -3 -3 -3 -3 -3 -2 -1 -1 -0 -0 0 1 2 3 4 4 5 4 3 3
-3 -4 -4 -4 -4 -3 -3 -3 -2 -1 -0 -0 0 1 2 3 4 5 5 5 4 4
-4 -5 -5 -4 -4 -3 -3 -3 -2 -1 -0 0 0 1 2 3 4 4 5 5 5 4
-4 -4 -4 -4 -3 -3 -3 -2 -1 -0 1 2 2 2 3 4 4 4 4 4 5 5
-3 -3 -3 -3 -3 -2 -1 -0 1 2 3 3 4 4 4 5 5 5 5 5 5 5
-2 -2 -2 -2 -2 -1 0 2 3 4 4 4 5 5 5 6 6 6 6 6 7 7
-1 -1 -1 -1 -0 1 2 3 4 5 4 5 5 6 6 7 8 8 9 9 9 9
-1 -0 1 2 2 3 4 5 5 5 5 6 7 8 9 10 11 12 12 12 12 12
0 1 3 3 3 4 4 5 6 6 6 7 8 10 11 12 13 14 14 14 13 13